GW0007 Weather Reports


time (UTC)temp
F
wind
direction
speed
knots
gust
knots
rain 1hr
in
rain 24hr
in
rain mn
in
humidity
%
barometer
mb
20260504081540 41 0 0.0 1.7 0.00 0.00 0.00 69 1009.4
20260504050113 51 258 0.0 3.5 0.00 0.00 0.00 49 1009.0
20260504044546 51 276 0.9 2.6 0.00 0.00 0.00 50 1009.1
20260504043039 53 245 1.7 3.5 0.00 0.00 0.00 47 1008.9
20260504041537 56 0 0.9 2.6 0.00 0.00 0.00 43 1008.9
20260504040040 59 25 1.7 4.3 0.00 0.00 0.00 40 1008.8
20260504034538 59 125 1.7 4.3 0.00 0.00 0.00 34 1008.7
20260504033041 58 68 0.9 4.3 0.00 0.00 0.00 37 1008.4
20260504031541 59 0 0.9 6.1 0.00 0.00 0.00 38 1008.2
20260504030042 62 0 0.0 4.3 0.00 0.00 0.00 34 1008.0
20260504024537 64 339 1.7 4.3 0.00 0.00 0.00 33 1007.9
20260504023043 66 304 0.0 3.5 0.00 0.00 0.00 31 1007.8
20260504021539 68 293 3.5 7.0 0.00 0.00 0.00 28 1007.8
20260504020037 71 309 2.6 5.2 0.00 0.00 0.00 25 1007.9
20260504014552 71 319 3.5 7.0 0.00 0.00 0.00 24 1008.0
20260504013047 72 259 4.3 9.6 0.00 0.00 0.00 25 1007.9
20260504011545 72 143 6.1 13.9 0.00 0.00 0.00 23 1008.0
20260504010046 73 316 6.1 12.2 0.00 0.00 0.00 23 1008.0
20260504004538 73 282 5.2 12.2 0.00 0.00 0.00 24 1008.1
20260504003040 73 298 11.3 17.4 0.00 0.00 0.00 22 1008.2
20260504001551 73 269 8.7 19.1 0.00 0.00 0.00 22 1008.3
20260504000045 74 290 7.0 17.4 0.00 0.00 0.00 23 1008.4
20260503234539 73 302 16.5 23.5 0.00 0.00 0.00 21 1008.5
20260503233035 74 343 8.7 15.6 0.00 0.00 0.00 22 1008.5
20260503231541 73 289 10.4 17.4 0.00 0.00 0.00 23 1008.8
20260503230045 73 280 10.4 20.0 0.00 0.00 0.00 22 1009.0
20260503224543 73 310 7.8 16.5 0.00 0.00 0.00 21 1009.1
20260503223039 73 309 10.4 17.4 0.00 0.00 0.00 21 1009.1
20260503221546 73 334 7.0 21.7 0.00 0.00 0.00 22 1009.4
20260503220056 72 311 13.0 20.9 0.00 0.00 0.00 20 1009.6
20260503214542 73 266 7.0 16.5 0.00 0.00 0.00 21 1009.7
20260503213038 72 316 9.6 20.0 0.00 0.00 0.00 21 1009.9
20260503211537 72 285 7.8 22.6 0.00 0.00 0.00 21 1010.4
20260503210053 72 306 6.1 18.2 0.00 0.00 0.00 24 1010.5
20260503204557 71 305 8.7 23.5 0.00 0.00 0.00 24 1010.7
20260503203053 70 323 13.9 22.6 0.00 0.00 0.00 22 1010.7
20260503201546 70 305 13.9 25.2 0.00 0.00 0.00 24 1011.0
20260503200047 70 279 13.0 25.2 0.00 0.00 0.00 24 1011.1
20260503194550 70 285 10.4 22.6 0.00 0.00 0.00 23 1011.3
20260503193043 70 335 10.4 22.6 0.00 0.00 0.00 25 1011.6
20260503191548 70 337 15.6 24.3 0.00 0.00 0.00 26 1011.8
20260503190045 69 307 8.7 14.8 0.00 0.00 0.00 26 1012.2
20260503184537 68 70 0.9 11.3 0.00 0.00 0.00 30 1012.4
20260503183043 67 349 12.2 23.5 0.00 0.00 0.00 27 1012.6
20260503181538 68 295 11.3 20.9 0.00 0.00 0.00 29 1012.8
20260503180056 67 293 11.3 17.4 0.00 0.00 0.00 29 1012.8
20260503174543 67 257 7.8 20.0 0.00 0.00 0.00 32 1013.4
20260503173115 66 285 7.8 13.0 0.00 0.00 0.00 34 1013.4
20260503171545 67 260 6.1 17.4 0.00 0.00 0.00 36 1013.6